CAN1435 LEMD-SPJC

Flight info

Callsign CAN1435
Flight time N/A
Altitude 31000
Route CCS DCT ELVAR/N0494F350 DCT MANOX/M086F360 DCT 34N020W 29N030W 23N040W/M086F380 DCT QUETN/N0495F380 DCT 15N050W DCT TRAPP UM527 UMREM/N0492F400 UM527 VADOS
Aircraft A388/J-SADE2E3FGHIJ3J4J5M1RWXY/LB1D1

Departure

Time 2026-05-03 21:19
Airport Adolfo Suárez Madrid–Barajas Airport (LEMD)

Arrival

Time N/A
Airport Jorge Chávez International Airport (SPJC)
Time Latitude Longitude Altitude Speed Heading
2026-05-03 20:59 40.49358 -3.56884 1985 ft 0 kts 89°
2026-05-03 21:09 40.49357 -3.56908 1970 ft 4 kts 89°
2026-05-03 21:10 40.49357 -3.56944 1964 ft 4 kts 89°
2026-05-03 21:10 40.49357 -3.56975 1986 ft 4 kts 85°
2026-05-03 21:10 40.49349 -3.57002 1986 ft 4 kts 24°
2026-05-03 21:10 40.49323 -3.57009 1984 ft 4 kts
2026-05-03 21:11 40.49312 -3.57009 1984 ft 1 kts
2026-05-03 21:13 40.49320 -3.57007 1985 ft 3 kts 34°
2026-05-03 21:14 40.49325 -3.56985 1986 ft 2 kts 118°
2026-05-03 21:14 40.49309 -3.56976 1989 ft 3 kts 202°
2026-05-03 21:14 40.49296 -3.57025 1984 ft 14 kts 263°
2026-05-03 21:14 40.49287 -3.57169 1987 ft 11 kts 266°
2026-05-03 21:15 40.49274 -3.57233 1988 ft 0 kts 211°
2026-05-03 21:15 40.49251 -3.57244 1988 ft 13 kts 191°
2026-05-03 21:16 40.49188 -3.57260 1988 ft 0 kts 191°
2026-05-03 21:16 40.49187 -3.57260 1988 ft 1 kts 194°
2026-05-03 21:16 40.49171 -3.57285 1989 ft 11 kts 263°
2026-05-03 21:17 40.49176 -3.57328 1988 ft 0 kts 286°
2026-05-03 21:17 40.49205 -3.57433 1989 ft 13 kts 327°
2026-05-03 21:17 40.49321 -3.57468 1988 ft 12 kts 356°
2026-05-03 21:18 40.49331 -3.57469 1989 ft 3 kts 356°
2026-05-03 21:18 40.49373 -3.57472 1986 ft 20 kts 359°
2026-05-03 21:18 40.49762 -3.57472 1987 ft 95 kts 360°
2026-05-03 21:18 40.50649 -3.57479 1987 ft 156 kts
2026-05-03 21:19 40.51874 -3.57485 1988 ft 193 kts 359°
2026-05-03 21:19 40.53279 -3.57474 2195 ft 207 kts 359°
2026-05-03 21:19 40.54734 -3.57473 2730 ft 205 kts 358°
2026-05-03 21:19 40.56088 -3.57268 3521 ft 192 kts 17°
2026-05-03 21:20 40.57324 -3.56751 4289 ft 180 kts 13°
2026-05-03 21:20 40.58562 -3.56268 4744 ft 193 kts 13°
2026-05-03 21:20 40.59907 -3.55764 5022 ft 208 kts
2026-05-03 21:20 40.61380 -3.55890 5181 ft 224 kts 333°
2026-05-03 21:21 40.62623 -3.57168 5427 ft 238 kts 302°
2026-05-03 21:21 40.63226 -3.59250 5713 ft 252 kts 276°
2026-05-03 21:21 40.63338 -3.61540 6408 ft 255 kts 271°
2026-05-03 21:21 40.63424 -3.63868 7109 ft 256 kts 274°
2026-05-03 21:22 40.63617 -3.66256 7714 ft 260 kts 276°
2026-05-03 21:22 40.63893 -3.68592 8387 ft 262 kts 278°
2026-05-03 21:22 40.64216 -3.70964 9064 ft 265 kts 278°
2026-05-03 21:22 40.64530 -3.73373 9685 ft 267 kts 273°
2026-05-03 21:23 40.64563 -3.75815 10319 ft 267 kts 264°
2026-05-03 21:23 40.64479 -3.78340 10550 ft 286 kts 265°
2026-05-03 21:23 40.64409 -3.81033 10710 ft 304 kts 265°
2026-05-03 21:23 40.64344 -3.83882 10864 ft 320 kts 266°
2026-05-03 21:24 40.64277 -3.86874 11174 ft 330 kts 266°
2026-05-03 21:24 40.64232 -3.88874 11561 ft 331 kts 265°
2026-05-03 21:24 40.64139 -3.92938 12294 ft 334 kts 265°
2026-05-03 21:24 40.64091 -3.94969 12696 ft 335 kts 265°
2026-05-03 21:25 40.64015 -3.98083 13319 ft 337 kts 265°
2026-05-03 21:25 40.63939 -4.01131 13872 ft 338 kts 264°
2026-05-03 21:25 40.63860 -4.04240 14360 ft 340 kts 264°
2026-05-03 21:25 40.63780 -4.07351 14861 ft 342 kts 265°
2026-05-03 21:26 40.63699 -4.10498 15330 ft 345 kts 265°
2026-05-03 21:26 40.63617 -4.13651 15811 ft 347 kts 265°
2026-05-03 21:26 40.63535 -4.16836 16272 ft 349 kts 265°
2026-05-03 21:26 40.63458 -4.20052 16702 ft 352 kts 265°
2026-05-03 21:27 40.63370 -4.23283 17179 ft 354 kts 265°
2026-05-03 21:27 40.63278 -4.26525 17653 ft 356 kts 265°
2026-05-03 21:27 40.63186 -4.29798 18096 ft 359 kts 265°
2026-05-03 21:27 40.63095 -4.33050 18492 ft 361 kts 265°
2026-05-03 21:28 40.63000 -4.36400 18942 ft 361 kts 264°
2026-05-03 21:28 40.62907 -4.39700 19387 ft 362 kts 264°
2026-05-03 21:28 40.62812 -4.43018 19800 ft 363 kts 264°
2026-05-03 21:28 40.62748 -4.45226 20081 ft 364 kts 264°